COSMOS 2361

导读 | 豆包AI

COSMOS 2361是苏联解体后独立国家联合体(CIS)于1998年12月24日08时发射的“宇宙”系列卫星,延续了苏联/俄罗斯军事卫星体系的发展脉络。“宇宙”系列多承担军事侦察、电子情报收集等保密任务,该卫星具体任务细节未公开,是后苏联时代俄罗斯维持太空军事能力的重要节点,目前已完成在轨运行使命,归属俄罗斯航天力量序列,体现了其航天工业的技术延续性。

基本信息
目录编号:
25590
目录名称:
COSMOS 2361
国际标识:
1998-076A
轨道中心:
EARTH
卫星名称:
COSMOS 2361
卫星全名:
--
卫星状态:
在轨 (已飞行9963 天)
发射日期:
1998-12-24 UTC
国别 :
俄罗斯(独联体) (CIS)
星等 :
--
轨道信息
数据来源 国际轨道数据 AOE轨道数据
星历时间 2026-04-04T05:36:31+0800
2小时前
查看轨道信息
2026-03-31T17:00:00+0800
3天前
查看轨道信息
半长轴 7366.133km 7366.134km
偏心率 0.0030499 0.0030544
轨道倾角 82.930° 82.931°
近地点辐角 315.568° 325.600°
升交点赤经 261.136° 263.744°
平近点角 161.098° 12.829°
近地点 965.53km 965.497km
远地点 1010.462km 1010.497km
周期 104.862分钟 104.862分钟
每日圈数 13.732307 13.732304
详细信息
使用方式:
暂无
2D轨道图
3D轨道图
轨道高度分析图
轨道倾角分析图
轨道综合分析图
查看轨道综合分析图